www.pogodaiklimat.ru

Погода и климат >> Архив погоды >> Таиланд >> Аюттхая


ПОГОДА в Аюттхая

  • Прогноз погоды в Аюттхая
  • Монитор погоды в Аюттхая

АРХИВ ПОГОДЫ в Аюттхая

Время (UTC), дата Ветер
(напр.,м/с)
 
Видим.   Явления Облачность Т
(С)
Тd
(С)
f
(%)
Тe
(С)
Тes
(С)
Комфортность P
(гПа)
Po
(гПа)
Тmin
(С)
Tmax
(С)
R
(мм)
R24
(мм)
S
(см)
03 20.06 ЮЗ 4 9000 м мгла 6/1 600 м
[Cu hum Ac trans Cs]
+32.0 +24.1 63 +44 +51 опасность
перегрева
1009.5 1008.4
06 20.06 Ю 4 9000 м мгла 6/3 600 м
[Cu med, cong Ac lent Cs]
+34.6 +24.9 57 +48 +56 опасность
перегрева
1008.2 1007.1
09 20.06 ЮЗ 10 9000 м мгла 3/1 600 м
[Cu med, cong Cs]
+35.4 +25.3 56 +49 +50 опасность
перегрева
1005.2 1004.2
12 20.06 ЮЗ 4 8000 м мгла 3/1 600 м
[Sc Ac lent Cs]
+31.7 +23.8 63 +43 +43 опасность
перегрева
1005.0 1004.0 +36.6
15 20.06 Ю 4 8000 м дымка 4/0
[Cs]
+29.9 +24.2 72 +42 +42 опасность
перегрева
1007.2 1006.1
18 20.06 штиль 0 8000 м дымка 4/0
[Cs]
+28.4 +24.2 78 +40 +40 очень
душно
1006.8 1005.7
21 20.06 ЮЗ 4 8000 м дымка 4/0
[Cs]
+27.3 +24.3 84 +38 +38 очень
душно
1006.3 1005.1
00 21.06 штиль 0 9000 м дымка 3/0
[Cs]
+27.6 +24.7 84 +39 +41 очень
душно
1007.4 1006.3 +26.0
03 21.06 З 3 9000 м мгла 3/1 600 м
[Cu hum Cs]
+33.6 +22.9 54 +44 +55 опасность
перегрева
1008.3 1007.2
06 21.06 З 3 10 км 4/3 600 м
[Cu med, cong Cs]
+35.2 +23.5 51 +46 +58 опасность
перегрева
1006.5 1005.4
09 21.06 СЗ 3 10 км 4/3 600 м
[Cu med, cong Cs]
+36.8 +22.9 45 +46 +51 опасность
перегрева
1004.4 1003.3
12 21.06 ЮЗ 2 10 км 8/3 600 м
[Cb cap Cs]
+33.2 +24.7 61 +46 +46 опасность
перегрева
1005.5 1004.5 +37.5
15 21.06 штиль 0 9000 м дымка 6/0
[Ac lent Cs]
+30.7 +26.1 77 +46 +46 опасность
перегрева
1006.0 1004.9
18 21.06 ЮЗ 4 9000 м дымка 8/0
[Ac lent Cs]
+29.1 +25.7 82 +43 +43 опасность
перегрева
1005.7 1004.6
21 21.06 Ю 2 8000 м дымка 8/0
[Ac lent Cs]
+28.5 +25.7 85 +42 +42 опасность
перегрева
1005.3 1004.2
00 22.06 ЮЗ 3 8000 м дымка 8/0
[Ac lent Cs]
+28.8 +25.2 81 +42 +43 опасность
перегрева
1005.7 1004.6 +27.5
03 22.06 З 4 9000 м мгла 3/1 600 м
[Cu hum Cs]
+34.1 +23.5 54 +45 +54 опасность
перегрева
1006.9 1005.8
06 22.06 ЮЗ 4 10 км 8/3 600 м
[Cu med, cong Cs]
+36.0 +23.8 50 +47 +56 опасность
перегрева
1005.7 1004.6
09 22.06 ЮЗ 5 10 км 8/3 600 м
[Cb cap Cs]
+35.6 +23.3 49 +46 +48 опасность
перегрева
1002.7 1001.6
12 22.06 ЮЗ 3 10 км 8/3 600 м
[Cb cap Cs]
+32.9 +24.4 61 +45 +45 опасность
перегрева
1002.8 1001.8 +38.3
15 22.06 Ю 4 9000 м дымка 6/0
[Ac lent Cs]
+31.0 +25.4 72 +45 +45 опасность
перегрева
1004.6 1003.5
18 22.06 штиль 0 8000 м дымка 6/0
[Ac lent Cs]
+29.3 +26.2 83 +44 +44 опасность
перегрева
1004.4 1003.3
21 22.06 ЮВ 4 8000 м дымка 6/0
[Ac lent Cs]
+28.8 +26.3 86 +44 +44 опасность
перегрева
1003.9 1002.8
00 23.06 штиль 0 8000 м дымка 6/0
[Ac lent Cs]
+28.9 +26.2 85 +44 +45 опасность
перегрева
1005.2 1004.1 +27.8
03 23.06 Ю 8 9000 м 3/1 600 м
[Cu hum Ci fib]
+33.6 +24.7 60 +47 +49 опасность
перегрева
1005.2 1004.2
06 23.06 ЮЗ 7 8000 м мгла 8/3 600 м
[Cu med, cong Ac lent Cs]
+36.6 +24.0 49 +48 +51 опасность
перегрева
1004.2 1003.2
09 23.06 Ю 6 8000 м мгла 8/1 600 м
[Cu med, cong Ac lent Cs]
+36.0 +24.3 51 +48 +50 опасность
перегрева
1002.2 1001.2
12 23.06 ЮВ 6 8000 м дымка 10/3 600 м
[Sc Ac As Cs]
+29.7 +23.9 71 +41 +41 опасность
перегрева
1004.0 1002.9 +37.7
15 23.06 ЮВ 4 8000 м дымка 4/1 600 м
[Sc Ac lent Cs]
+28.6 +24.0 76 +40 +40 очень
душно
1006.0 1004.8
18 23.06 ЮВ 4 8000 м дымка 4/0
[Cs]
+28.2 +23.9 78 +39 +39 очень
душно
1006.2 1005.0
21 23.06 штиль 0 8000 м дымка 4/0
[Cs]
+27.7 +23.8 79 +38 +38 очень
душно
1005.3 1004.2
00 24.06 Ю 3 8000 м дымка 10/3 600 м
[Sc Ac As Cs]
+27.5 +24.3 83 +39 +39 очень
душно
1006.5 1005.3 +26.2
03 24.06 Ю 4 9000 м дымка 8/5 600 м
[Cu med, cong Ac lent Cs]
+32.2 +25.6 68 +47 +50 опасность
перегрева
1008.0 1006.9
06 24.06 Ю 6 10 км 9/5 600 м
[Cu med, cong Ac lent Cs]
+34.8 +24.9 57 +48 +51 опасность
перегрева
1006.3 1005.2
09 24.06 Ю 12 9000 м 10/5 600 м
[Cb cap Ac As Cs]
+32.7 +24.3 61 +45 +45 опасность
перегрева
1004.7 1003.7
12 24.06 Ю 7 10 км 10/4 600 м
[Cu med, cong Ac As Cs]
+30.3 +24.4 71 +43 +43 опасность
перегрева
1006.5 1005.4 +35.8
15 24.06 ЮЗ 2 9000 м дымка 10/4 600 м
[Sc Ac As Cs]
+26.7 +23.5 83 +36 +36 очень
душно
1008.2 1007.1
18 24.06 штиль 0 8000 м дымка 10/4 600 м
[Sc Ac As Cs]
+26.5 +23.6 84 +36 +36 очень
душно
1007.6 1006.5
21 24.06 штиль 0 8000 м дымка 10/4 600 м
[Sc Ac As Cs]
+26.8 +24.8 89 +38 +38 очень
душно
1007.1 1006.0
00 25.06 штиль 0 7000 м дымка 10/4 600 м
[Sc Ac As Cs]
+27.3 +25.3 89 +40 +40 очень
душно
1008.0 1006.9 +25.5
03 25.06 ЮЗ 8 8000 м дымка 8/4 600 м
[Cu med, cong Ac lent Cs]
+31.5 +25.1 69 +45 +46 опасность
перегрева
1009.0 1007.9
06 25.06 ЮЗ 10 8000 м мгла 8/4 600 м
[Sc Ac As Cs]
+33.5 +23.6 56 +44 +45 опасность
перегрева
1007.6 1006.5
09 25.06 ЮЗ 10 8000 м мгла 8/3 600 м
[Cu med, cong Ac lent Cs]
+35.2 +24.3 53 +47 +47 опасность
перегрева
1005.4 1004.3
12 25.06 ЮЗ 10 7000 м дымка 8/6 600 м
[Sc Ac As Cs]
+30.0 +24.1 71 +42 +42 опасность
перегрева
1007.1 1006.0 +36.5
15 25.06 ЮВ 3 6000 м дымка 8/1 600 м
[Sc Ac lent Cs]
+27.6 +25.0 86 +40 +40 очень
душно
1009.0 1007.9
18 25.06 Ю 3 6000 м дымка 8/1 600 м
[Sc Ac lent Cs]
+27.0 +24.7 87 +38 +38 очень
душно
1008.4 1007.3
21 25.06 ЮЗ 4 6000 м дымка 8/1 600 м
[Sc Ac lent Cs]
+26.7 +24.4 87 +37 +37 очень
душно
1007.4 1006.3
00 26.06 ЮЗ 5 8000 м дымка 8/0
[Ac lent Cs]
+26.8 +24.6 88 +38 +38 очень
душно
1007.6 1006.5 +25.4
03 26.06 ЮЗ 9 9000 м мгла 8/1 600 м
[Cu hum Ac lent Cs]
+32.6 +23.0 57 +43 +44 опасность
перегрева
1009.0 1007.9
06 26.06 ЮЗ 10 8000 м мгла 8/3 600 м
[Cu med, cong Ac lent Cs]
+34.0 +23.0 53 +44 +45 опасность
перегрева
1006.8 1005.7
09 26.06 ЮЗ 10 8000 м мгла 8/3 600 м
[Cu hum Ac lent Cs]
+34.4 +23.2 52 +45 +45 опасность
перегрева
1004.5 1003.5
12 26.06 СЗ 6 1000 м гроза, ливневой дождь 10/3 600 м
[Cb cap Ac As Cs]
+26.0 +24.3 90 +36 +36 очень
душно
1007.0 1005.8 +35.7 11
15 26.06 штиль 0 8000 м дымка {гроза} 10/4 600 м
[Sc Ac As Cs]
+25.7 +24.5 93 +36 +36 очень
душно
1007.8 1006.6 22
18 26.06 ЮВ 3 8000 м дымка {гроза} 6/3 600 м
[Sc Ac lent Cs]
+26.6 +25.0 91 +38 +38 очень
душно
1007.3 1006.1 33
21 26.06 Ю 5 8000 м дымка 6/3 600 м
[Sc Ac lent Cs]
+26.4 +24.8 91 +38 +38 очень
душно
1005.6 1004.5
00 27.06 Ю 2 8000 м дымка 8/3 600 м
[Sc Ac lent Cs]
+26.5 +24.3 88 +37 +38 очень
душно
1006.6 1005.4 +24.5

 

Местоположение метеостанции Аюттхая (Таиланд): широта 14.52 долгота 100.72 высота над уровнем моря 10 м.

В архиве по умолчанию представлена погода в Аюттхая за последнюю неделю. Архивные данные за месяц целиком и за предыдущие месяцы, начиная с января 2011 года, Вы можете получить, выбрав интересующий диапазон дат из раскрывающегося списка и нажав кнопку "Ввод!".


*Определитесь, кто Вы:
робот инопланетянин человек

Внимание! Время в таблицах - всемирное. Для получения местного времени необходимо прибавить поправку, которая равна 7 ч.

Смотрите также архив погоды в соседних городах и на ближайших метеорологических станциях:

Погода в Сарабури (Таиланд) (22 км)
Погода в Лопбури (Таиланд) (33 км)
Погода в Патхумтхани (Таиланд) (48 км)
Погода в Суфанбури (Таиланд) (64 км)
Погода в Лаем-Чабанге (Таиланд) (65 км)
Погода в Пакчонг Агромете (Таиланд) (66 км)
Погода в Дон Муанг (Таиланд) (68 км)
Погода в Прачинбури (Таиланд) (87 км)
Погода в Бангкоке (Таиланд) (90 км)
Погода в Чайнат Агромете (Таиланд) (91 км)

Пояснения к столбцам:

Ветер - указаны скорость ветра в м/с - средняя за 10 мин, порывы в срок и между сроками (в фигурных скобках) и направление, откуда дует ветер: С - северный, СВ - северо-восточный, В - восточный, ЮВ - юго-восточный, Ю - южный, ЮЗ - юго-западный, З - западный, СЗ - северо-западный.
Видимость - горизонтальная дальность видимости в метрах или километрах. При видимости от 1 до 10 км при отсутствии осадков обычно наблюдается дымка, при ухудшении видимости до 1 км и менее - туман. В сухую погоду видимость может ухудшаться дымом, пылью или мглою.
Явления - указаны атмосферные явления, наблюдавшиеся в срок или в последний час перед сроком; фигурными скобками обозначены явления, наблюдавшиеся между сроками (за 1-3 часа до срока); квадратными скобками обозначены град или гололедные отложения с указанием их диаметра в мм.
Облачность - указаны через наклонную черту общая и нижняя облачность в баллах и высота нижней границы облаков в метрах; квадратными скобками обозначены формы облаков: Ci - перистые, Cs - перисто-слоистые, Cc - перисто-кучевые, Ac - высококучевые, As - высокослоистые, Sc - слоисто-кучевые, Ns - слоисто-дождевые, Cu - кучевые, Cb - кучево-дождевые. Подробнее классификацию облаков см. в Атласе облаков (PDF).
T - Температура воздуха - температура, измеренная на высоте 2 м над землей.
Td - Температура точки росы - температура, при понижении до которой содержащийся в воздухе водяной пар достигнет насыщения.
f - Относительная влажность воздуха - влажноcть воздуха, измеренная на высоте 2 м над землей.
Te - Эффективная температура - температура, которую ощущает одетый по сезону человек в тени. Характеристика душности погоды. При расчете учитывается влияние влажности воздуха и скорости ветра на теплоощущения человека.
Tes - Эффективная температура на солнце - температура, которую ощущает человек, с поправкой на солнечный нагрев. Характеристика знойности погоды. Зависит от высоты солнца над горизонтом, облачности и скорости ветра. Ночью, в пасмурную погоду, а также при ветре 12 м/с и более поправка равна нулю.
P - Атмосферное давление - приведенное к уровню моря атмосферное давление.
Po - Атмосферное давление - измеренное на уровне метеостанции атмосферное давление.
Tmin - Минимальная температура - минимум температуры воздуха на высоте 2 м над землей.
Tmax - Максимальная температура - максимум температуры воздуха на высоте 2 м над землей.
R - Количество осадков - Количество выпавших осадков за период времени, мм. При наведении курсора мыши на число - период времени, за который выпало указанное количество осадков.
R24 - Количество осадков - Количество выпавших осадков за 24 часа, мм.
S - Снежный покров - Высота снежного покрова, см. При наведении курсора мыши на число - состояние снежного покрова и степень покрытия местности в баллах.